www.pogodaiklimat.ru

Погода и климат >> Архив погоды >> Ливия >> Тазирбу


ПОГОДА в Тазирбу

  • Прогноз погоды в Тазирбу
  • Монитор погоды в Тазирбу

АРХИВ ПОГОДЫ в Тазирбу

Время (UTC), дата Ветер
(напр.,м/с)
 
Видим.   Явления Облачность Т
(С)
Тd
(С)
f
(%)
Тe
(С)
Тes
(С)
Комфортность P
(гПа)
Po
(гПа)
Тmin
(С)
Tmax
(С)
R
(мм)
R24
(мм)
S
(см)
06 12.09 штиль 0 20 км ясно +29.0 +9.5 30 +29 +32 жарко 1015.5 986.0
09 12.09 Ю 3 20 км ясно +35.7 +14.4 28 +37 +51 опасность
солнечного
удара
1017.6 988.6
12 12.09 С 4 10 км ясно +38.7 +15.9 26 +40 +51 опасность
солнечного
удара
1017.0 988.3
15 12.09 штиль 0 20 км ясно +39.0 +15.7 25 +40 +45 очень
душно
1016.3 987.7
18 12.09 штиль 0 10 км ясно +35.2 +17.0 34 +38 +38 очень
душно
1017.3 988.3 +39.8
21 12.09 штиль 0 10 км ясно +33.6 +15.1 33 +35 +35 душно 1017.8 988.6
00 13.09 С 8 10 км ясно +29.8 +17.3 47 +34 +34 очень
душно
1015.7 986.2
03 13.09 С 7 10 км ясно +29.0 +16.6 47 +32 +32 душно 1015.5 986.0
06 13.09 С 5 20 км ясно +26.0 +15.2 51 +29 +30 душно 1016.9 987.0
09 13.09 С 9 20 км ясно +29.5 +14.9 41 +32 +33 душно 1018.0 988.4
12 13.09 С 7 20 км ясно +33.9 +14.7 32 +36 +40 душно 1015.2 986.1
15 13.09 С 7 20 км ясно +33.7 +15.0 33 +36 +36 очень
душно
1014.4 985.3
18 13.09 С 7 10 км ясно +31.1 +16.0 40 +34 +34 душно 1015.1 985.8 +34.5
21 13.09 С 3 10 км ясно +27.6 +14.8 46 +30 +30 жарко 1016.3 986.6
00 14.09 штиль 0 10 км ясно +25.0 +15.1 54 +28 +28 жарко 1015.8 985.9
09 14.09 СВ 6 20 км ясно +30.0 +22.7 65 +40 +46 очень
душно
1017.9 988.4
12 14.09 С 5 20 км ясно +37.0 +12.4 23 +37 +45 очень
жарко
1016.5 987.7
15 14.09 С 1 20 км ясно +32.0 +14.0 34 +34 +37 душно 1014.8 985.6
18 14.09 штиль 0 10 км ясно +30.0 +12.2 33 +31 +31 жарко 1016.5 987.0 +34.0
06 15.09 штиль 0 20 км ясно +24.5 +10.3 41 +26 +29 жарко 1017.4 987.4
09 15.09 С 8 6000 м пыльный позёмок ясно +27.0 +11.4 38 +28 +31 жарко 1017.9 988.1
12 15.09 С 7 6000 м пыльный позёмок ясно +30.4 +12.4 33 +31 +36 жарко 1017.3 987.8
15 15.09 С 5 20 км ясно +30.7 +11.7 31 +31 +33 жарко 1016.7 987.3
18 15.09 С 6 10 км ясно +28.6 +9.9 31 +29 +29 жарко 1017.4 987.8 +30.9
15 16.09 штиль 0 20 км ясно +31.0 +13.6 35 +32 +37 жарко 1014.4 985.1
18 16.09 штиль 0 10 км ясно +28.5 +13.5 40 +30 +30 жарко 1045.0 1014.6 +32.5
00 17.09 штиль 0 10 км ясно +21.5 +10.6 50 +23 +23 комфорт 1015.0 984.7
12 17.09 СВ 4 20 км ясно +27.5 +14.3 44 +30 +40 жарко 1016.2 986.5
15 17.09 СВ 3 20 км ясно +33.3 +11.8 27 +33 +36 жарко 1013.7 984.6
18 17.09 штиль 0 10 км ясно +31.0 +13.7 35 +32 +32 жарко 1013.7 984.4 +31.0
21 17.09 штиль 0 10 км ясно +26.0 +11.1 39 +27 +27 жарко 1015.1 985.3
00 18.09 В 2 10 км ясно +22.0 +9.7 46 +24 +24 комфорт 1013.9 983.7
03 18.09 С 3 10 км ясно +21.8 +9.2 45 +23 +23 комфорт 1014.4 984.2
06 18.09 СВ 3 20 км ясно +23.3 1015.8 985.7
09 18.09 штиль 0 20 км ясно +31.0 +10.1 27 +31 +51 опасность
солнечного
удара
1015.8 986.4
12 18.09 Ю 2 20 км ясно +35.2 +10.4 22 +34 +51 опасность
солнечного
удара
1014.6 985.7
15 18.09 С 4 800 м ясно +34.6 +12.0 25 +34 +36 очень
жарко
1014.0 985.0
18 18.09 штиль 0 10 км ясно +31.2 +12.4 32 +32 +32 жарко 1014.6 985.3 +36.2
21 18.09 штиль 0 10 км ясно +25.9 +12.1 42 +27 +27 жарко 1015.6 985.8
00 19.09 С 3 10 км ясно +25.0 +9.6 38 +26 +26 жарко 1014.8 984.9

 

Местоположение метеостанции Тазирбу (Ливия): широта 25.80 долгота 21.13 высота над уровнем моря 261 м.

В архиве по умолчанию представлена погода в Тазирбу за последнюю неделю. Архивные данные за месяц целиком и за предыдущие месяцы, начиная с января 2011 года, Вы можете получить, выбрав интересующий диапазон дат из раскрывающегося списка и нажав кнопку "Ввод!".


*Определитесь, кто Вы:
робот инопланетянин человек

Внимание! Время в таблицах - всемирное. Для получения местного времени необходимо прибавить поправку, которая равна 1 ч.

Смотрите также архив погоды в соседних городах и на ближайших метеорологических станциях:

Погода в Куфре (Ливия) (281 км)
Погода в Джалу (Ливия) (362 км)
Погода в Мараде (Ливия) (445 км)
Погода в Сиве (Египет) (560 км)
Погода в Хуне (Ливия) (632 км)
Погода в Себе (Ливия) (679 км)
Погода в Фарафре (Египет) (696 км)
Погода в Бенгази (Ливия) (706 км)
Погода в Сирте (Ливия) (747 км)
Погода в Эль-Мардже (Ливия) (748 км)

Пояснения к столбцам:

Ветер - указаны скорость ветра в м/с - средняя за 10 мин, порывы в срок и между сроками (в фигурных скобках) и направление, откуда дует ветер: С - северный, СВ - северо-восточный, В - восточный, ЮВ - юго-восточный, Ю - южный, ЮЗ - юго-западный, З - западный, СЗ - северо-западный.
Видимость - горизонтальная дальность видимости в метрах или километрах. При видимости от 1 до 10 км при отсутствии осадков обычно наблюдается дымка, при ухудшении видимости до 1 км и менее - туман. В сухую погоду видимость может ухудшаться дымом, пылью или мглою.
Явления - указаны атмосферные явления, наблюдавшиеся в срок или в последний час перед сроком; фигурными скобками обозначены явления, наблюдавшиеся между сроками (за 1-3 часа до срока); квадратными скобками обозначены град или гололедные отложения с указанием их диаметра в мм.
Облачность - указаны через наклонную черту общая и нижняя облачность в баллах и высота нижней границы облаков в метрах; квадратными скобками обозначены формы облаков: Ci - перистые, Cs - перисто-слоистые, Cc - перисто-кучевые, Ac - высококучевые, As - высокослоистые, Sc - слоисто-кучевые, Ns - слоисто-дождевые, Cu - кучевые, Cb - кучево-дождевые. Подробнее классификацию облаков см. в Атласе облаков (PDF).
T - Температура воздуха - температура, измеренная на высоте 2 м над землей.
Td - Температура точки росы - температура, при понижении до которой содержащийся в воздухе водяной пар достигнет насыщения.
f - Относительная влажность воздуха - влажноcть воздуха, измеренная на высоте 2 м над землей.
Te - Эффективная температура - температура, которую ощущает одетый по сезону человек в тени. Характеристика душности погоды. При расчете учитывается влияние влажности воздуха и скорости ветра на теплоощущения человека.
Tes - Эффективная температура на солнце - температура, которую ощущает человек, с поправкой на солнечный нагрев. Характеристика знойности погоды. Зависит от высоты солнца над горизонтом, облачности и скорости ветра. Ночью, в пасмурную погоду, а также при ветре 12 м/с и более поправка равна нулю.
P - Атмосферное давление - приведенное к уровню моря атмосферное давление.
Po - Атмосферное давление - измеренное на уровне метеостанции атмосферное давление.
Tmin - Минимальная температура - минимум температуры воздуха на высоте 2 м над землей.
Tmax - Максимальная температура - максимум температуры воздуха на высоте 2 м над землей.
R - Количество осадков - Количество выпавших осадков за период времени, мм. При наведении курсора мыши на число - период времени, за который выпало указанное количество осадков.
R24 - Количество осадков - Количество выпавших осадков за 24 часа, мм.
S - Снежный покров - Высота снежного покрова, см. При наведении курсора мыши на число - состояние снежного покрова и степень покрытия местности в баллах.